This is the latest recevied weather packets stored in our database for station/object KC5TIL-3. If no packets are shown the sender has not sent any weather packets the latest 10 day(s).
| Time | Temp. | Humidity | Pressure | Rain* | Wind** | Luminosity | Snow |
|---|---|---|---|---|---|---|---|
| 1787989460 | 28.89° C | 29% | 1013.8 hPa | 0 mm | 1.79 m/s, 206° | - | - |
| 1787989158 | 28.89° C | 29% | 1013.8 hPa | 0 mm | 1.34 m/s, 200° | - | - |
| 1787988860 | 28.89° C | 29% | 1013.8 hPa | 0 mm | 1.79 m/s, 215° | - | - |
| 1787988557 | 28.89° C | 29% | 1013.8 hPa | 0 mm | 1.34 m/s, 218° | - | - |
| 1787988256 | 28.89° C | 29% | 1013.8 hPa | 0 mm | 1.79 m/s, 186° | - | - |
| 1787987957 | 28.89° C | 29% | 1013.8 hPa | 0 mm | 1.79 m/s, 207° | - | - |
| 1787987654 | 29.44° C | 28% | 1013.8 hPa | 0 mm | 2.24 m/s, 221° | - | - |
| 1787987353 | 29.44° C | 28% | 1013.8 hPa | 0 mm | 1.34 m/s, 174° | - | - |
| 1787987050 | 29.44° C | 27% | 1013.8 hPa | 0 mm | 0 m/s | - | - |
| 1787986751 | 29.44° C | 27% | 1013.8 hPa | 0 mm | 1.79 m/s, 161° | - | - |
| 1787986450 | 29.44° C | 28% | 1013.8 hPa | 0 mm | 1.79 m/s, 213° | - | - |
| 1787986152 | 29.44° C | 27% | 1013.8 hPa | 0 mm | 1.79 m/s, 207° | - | - |
| 1787985854 | 29.44° C | 27% | 1013.8 hPa | 0 mm | 1.79 m/s, 196° | - | - |
| 1787985552 | 29.44° C | 27% | 1013.8 hPa | 0 mm | 1.79 m/s, 210° | - | - |
| 1787985254 | 29.44° C | 26% | 1013.8 hPa | 0 mm | 2.24 m/s, 192° | - | - |
| 1787984956 | 29.44° C | 26% | 1013.8 hPa | 0 mm | 1.79 m/s, 212° | - | - |
| 1787984655 | 30° C | 25% | 1013.8 hPa | 0 mm | 0 m/s | - | - |
| 1787984357 | 30° C | 25% | 1013.8 hPa | 0 mm | 1.79 m/s, 207° | - | - |
| 1787984058 | 30° C | 24% | 1013.8 hPa | 0 mm | 1.79 m/s, 166° | - | - |
| 1787983757 | 30° C | 24% | 1013.8 hPa | 0 mm | 2.68 m/s, 209° | - | - |
| 1787983454 | 30° C | 23% | 1013.8 hPa | 0 mm | 3.58 m/s, 209° | - | - |
| 1787983156 | 30.56° C | 23% | 1013.8 hPa | 0 mm | 2.68 m/s, 156° | - | - |
| 1787982855 | 30.56° C | 23% | 1013.8 hPa | 0 mm | 2.68 m/s, 173° | - | - |
| 1787982557 | 30.56° C | 22% | 1013.8 hPa | 0 mm | 3.58 m/s, 210° | - | - |
| 1787982258 | 30.56° C | 21% | 1013.8 hPa | 0 mm | 3.13 m/s, 210° | - | - |
* Rain latest hour (hover to see other rain measurements)
** Current wind speed in m/s (hover to see current wind gust speed)